This is the latest recevied weather packets stored in our database for station/object W4DHW-4. If no packets are shown the sender has not sent any weather packets the latest 10 day(s).
| Time | Temp. | Humidity | Pressure | Rain* | Wind** | Luminosity | Snow |
|---|---|---|---|---|---|---|---|
| 1778067840 | 17.22° C | 77% | 1011.7 hPa | 1.27 mm | - | 16 W/m² | - |
| 1778067538 | 17.22° C | 75% | 1011.7 hPa | 0 mm | - | 15 W/m² | - |
| 1778067235 | 17.78° C | 73% | 1011.6 hPa | 0 mm | - | 12 W/m² | - |
| 1778066931 | 17.22° C | 72% | 1011.3 hPa | 0 mm | - | 7 W/m² | - |
| 1778066628 | 17.78° C | 73% | 1011.5 hPa | 0 mm | - | 8 W/m² | - |
| 1778066326 | 17.78° C | 72% | 1011.4 hPa | 0 mm | - | 9 W/m² | - |
| 1778066024 | 17.78° C | 71% | 1011.3 hPa | 0 mm | - | 12 W/m² | - |
| 1778065721 | 17.78° C | 71% | 1010.8 hPa | 0 mm | - | 12 W/m² | - |
| 1778065418 | 17.78° C | 71% | 1010.9 hPa | 0 mm | - | 12 W/m² | - |
| 1778065115 | 17.78° C | 70% | 1011 hPa | 0 mm | - | 11 W/m² | - |
| 1778064811 | 17.78° C | 70% | 1010.6 hPa | 0 mm | - | 10 W/m² | - |
| 1778064509 | 17.78° C | 70% | 1010.7 hPa | 0 mm | - | 7 W/m² | - |
| 1778064207 | 17.78° C | 70% | 1010.7 hPa | 0 mm | - | 4 W/m² | - |
| 1778063904 | 17.78° C | 69% | 1011 hPa | 0 mm | - | 2 W/m² | - |
| 1778063601 | 17.78° C | 69% | 1010.7 hPa | 0 mm | - | 2 W/m² | - |
| 1778063299 | 17.78° C | 69% | 1010.5 hPa | 0 mm | - | 0 W/m² | - |
| 1778062997 | 17.78° C | 69% | 1010.8 hPa | 0 mm | - | 0 W/m² | - |
| 1778062694 | 17.78° C | 68% | 1010.9 hPa | 0 mm | - | 0 W/m² | - |
| 1778062389 | 17.78° C | 68% | 1010.9 hPa | 0 mm | - | 0 W/m² | - |
| 1778062088 | 17.78° C | 68% | 1011 hPa | 0 mm | - | 0 W/m² | - |
| 1778061786 | 17.78° C | 68% | 1010.6 hPa | 0 mm | - | 0 W/m² | - |
| 1778061484 | 17.78° C | 68% | 1010.9 hPa | 0 mm | - | 0 W/m² | - |
| 1778061180 | 17.78° C | 67% | 1010.7 hPa | 0 mm | - | 0 W/m² | - |
| 1778060877 | 18.33° C | 67% | 1010.9 hPa | 0 mm | - | 0 W/m² | - |
| 1778060576 | 18.33° C | 67% | 1010.8 hPa | 0 mm | - | 0 W/m² | - |
* Rain latest hour (hover to see other rain measurements)
** Current wind speed in m/s (hover to see current wind gust speed)